Location: Newark
(34.1333°N, 7.9667°W)
Time: 22:04:33
(UTC+00:00)

N. Korean satellite - Pass Details

Date: 02 October 2021
Orbit: 450 x 494 km, 97.3° (Epoch: 28 October)

Event Time Altitude Azimuth Distance (km) Brightness Sun altitude
Rises 04:58:38 0° 29° (NNE) 2,559 10.8 -19.1°
Reaches altitude 10° 05:01:07 10° 47° (NE) 1,681 10.1 -18.6°
Maximum altitude 05:03:50 20° 96° (E) 1,190 9.5 -18.0°
Drops below altitude 10° 05:06:33 10° 144° (SE) 1,683 9.6 -17.5°
Sets 05:09:02 0° 162° (SSE) 2,564 10.4 -17.0°
